Weather reports worldwide

Advertisment
Fair Isle, United Kingdom (3008): temperature & dewpoint: 14.10.2017 08:00:00 - 20.10.2017 08:00:00 (BST)Fair Isle, United Kingdom (3008): temperature -20cm & temperature -100cm: 14.10.2017 08:00:00 - 20.10.2017 08:00:00 (BST)Fair Isle, United Kingdom (3008): wind speed & gusts: 14.10.2017 08:00:00 - 20.10.2017 08:00:00 (BST)Fair Isle, United Kingdom (3008): wind direction: 14.10.2017 08:00:00 - 20.10.2017 08:00:00 (BST)Fair Isle, United Kingdom (3008): reduced air pressure: 14.10.2017 08:00:00 - 20.10.2017 08:00:00 (BST)Fair Isle, United Kingdom (3008): visibility: 14.10.2017 08:00:00 - 20.10.2017 08:00:00 (BST)Fair Isle, United Kingdom (3008): precipitation: 14.10.2017 08:00:00 - 20.10.2017 08:00:00 (BST)
Date & Time tt [°C] td [°C] tt -20cm [°C] tt -100cm [°C] ff [km/h] ff [kn] fx [km/h] fx [kn] dd ppp [hPa] vv [km] rr [mm]
20.10.2017 08:00:00 12,0 12,0 - - 34 18 54 29 SE 996,9 2,8 -
20.10.2017 07:00:00 12,1 12,1 - - 31 17 54 29 SE 996,4 0,7 0,0
20.10.2017 06:00:00 12,1 12,1 - - 34 18 59 32 SE 996,0 - 0,0
20.10.2017 05:00:00 12,0 12,0 - - 44 24 59 32 SE 996,1 1,9 1,2
20.10.2017 04:00:00 11,8 11,8 - - 35 19 52 28 ESE 997,0 3,1 1,6
20.10.2017 03:00:00 11,6 11,6 - - 31 17 46 25 ESE 998,2 0,4 0,6
20.10.2017 02:00:00 11,6 11,6 - - 28 15 48 26 ESE 999,3 - 2,4
20.10.2017 01:00:00 11,5 11,5 - - 29 16 - - E 999,7 1,5 1,4
20.10.2017 00:00:00 11,6 11,6 - - 16 9 - - ESE 1000,8 0,8 0,2
19.10.2017 23:00:00 11,6 11,6 - - 26 14 - - SE 1001,5 - 0,0
19.10.2017 22:00:00 11,5 11,5 - - 29 16 - - SE 1001,8 0,2 0,2
19.10.2017 21:00:00 11,6 11,6 - - 31 17 - - SE 1001,9 - 0,0
19.10.2017 20:00:00 11,4 11,4 - - 29 16 - - SE 1002,1 - 0,0
19.10.2017 19:00:00 11,3 11,3 - - 29 16 48 26 SE 1002,3 0,1 0,0
19.10.2017 18:00:00 11,2 11,2 - - 28 15 46 25 ESE 1003,0 3,7 0,0
19.10.2017 17:00:00 11,0 11,0 - - 31 17 55 30 ESE 1003,2 1,1 0,0
19.10.2017 16:00:00 11,0 10,9 - - 31 17 55 30 ESE 1003,8 3,6 0,0
19.10.2017 15:00:00 10,9 10,6 - - 29 16 61 33 ESE 1004,7 3,4 0,0
19.10.2017 14:00:00 10,9 10,2 - - 39 21 57 31 SE 1005,4 9 0,2
19.10.2017 13:00:00 10,6 10,1 - - 34 18 61 33 ESE 1005,8 4,0 0,4
19.10.2017 12:00:00 10,9 9,6 - - 42 23 59 32 SE 1006,2 11 0,0
19.10.2017 11:00:00 10,9 9,6 - - 39 21 57 31 ESE 1006,6 11 0,0
19.10.2017 10:00:00 11,0 9,6 10,7 10,7 37 20 54 29 SE 1006,9 11 0,0
19.10.2017 09:00:00 10,8 9,4 - - 35 19 54 29 SE 1006,9 14 0,0
19.10.2017 08:00:00 10,6 8,6 - - 29 16 50 27 SE 1007,1 16 0,0
19.10.2017 07:00:00 10,4 8,0 - - 29 16 50 27 SE 1007,4 21 0,0
19.10.2017 06:00:00 10,2 7,9 - - 28 15 46 25 SE 1007,8 18 0,0
19.10.2017 05:00:00 9,7 8,2 - - 28 15 54 29 SE 1008,0 18 0,2
19.10.2017 04:00:00 9,4 7,9 - - 29 16 48 26 SE 1008,5 18 0,0
19.10.2017 03:00:00 10,3 7,2 - - 28 15 - - SE 1008,8 21 0,0
19.10.2017 02:00:00 9,3 8,6 - - 31 17 50 27 SE 1009,4 8 0,0
19.10.2017 01:00:00 10,2 8,3 - - 31 17 50 27 SE 1009,8 5 0,0
19.10.2017 00:00:00 10,3 9,1 - - 29 16 68 37 ESE 1010,3 15 0,0
18.10.2017 23:00:00 10,3 8,7 - - 28 15 50 27 E 1011,1 14 0,0
18.10.2017 22:00:00 10,0 7,3 - - 29 16 52 28 E 1011,8 7 0,0
18.10.2017 21:00:00 9,9 5,1 - - 31 17 52 28 E 1013,0 25 0,0
18.10.2017 20:00:00 9,8 5,5 - - 24 13 48 26 E 1013,8 30 0,0
18.10.2017 19:00:00 9,6 4,8 - - 29 16 - - E 1014,2 35 0,0
18.10.2017 18:00:00 9,2 5,0 - - 24 13 - - E 1014,5 45 0,0
18.10.2017 17:00:00 9,1 4,5 - - 24 13 - - E 1015,4 50 0,0
18.10.2017 16:00:00 8,9 4,8 - - 24 13 - - E 1015,8 40 0,0
18.10.2017 15:00:00 - - - - - - - - - - 35 0,0
18.10.2017 14:00:00 - - - - - - - - - - - 0,0
18.10.2017 13:00:00 - - - - - - - - - - 30 0,0
18.10.2017 12:00:00 - - - - - - - - - - 45 0,0
18.10.2017 11:00:00 8,5 5,0 - - 22 12 - - ENE 1017,7 40 0,0
18.10.2017 10:00:00 8,6 5,3 10,7 10,9 16 9 - - ENE 1017,7 40 0,0
18.10.2017 09:00:00 8,1 5,3 - - 16 9 - - NE 1017,6 45 0,0
18.10.2017 08:00:00 7,9 4,7 - - 18 10 - - ENE 1017,3 50 0,0
18.10.2017 07:00:00 8,1 5,1 - - 18 10 - - NE 1016,9 45 0,0
18.10.2017 06:00:00 7,8 4,8 - - 18 10 - - NNE 1017,0 50 0,0
18.10.2017 05:00:00 7,9 5,1 - - 16 9 - - NNE 1017,0 45 0,0
18.10.2017 04:00:00 7,8 5,6 - - 18 10 - - NNE 1017,0 45 0,0
18.10.2017 03:00:00 7,8 4,6 - - 22 12 - - NNE 1016,8 45 0,0
18.10.2017 02:00:00 7,8 5,2 - - 18 10 - - NNE 1016,7 35 0,0
18.10.2017 01:00:00 8,0 4,6 - - 22 12 - - NNE 1016,3 45 0,0
18.10.2017 00:00:00 8,0 4,4 - - 28 15 - - NNE 1015,7 35 0,0
17.10.2017 23:00:00 8,0 4,4 - - 28 15 - - NNE 1015,2 30 0,0
17.10.2017 22:00:00 8,3 5,2 - - 26 14 48 26 N 1014,6 21 0,0
17.10.2017 21:00:00 8,0 4,4 - - 35 19 48 26 NNE 1013,8 25 0,0
17.10.2017 20:00:00 8,4 5,0 - - 29 16 52 28 N 1012,7 21 0,0
17.10.2017 19:00:00 8,4 4,6 - - 35 19 54 29 N 1011,5 25 0,0
17.10.2017 18:00:00 8,7 4,5 - - 41 22 63 34 N 1009,9 24 0,0
17.10.2017 17:00:00 9,2 5,8 - - 44 24 72 39 N 1008,3 18 0,0
17.10.2017 16:00:00 9,3 6,4 - - 46 25 67 36 N 1006,4 18 0,0
17.10.2017 15:00:00 8,7 7,7 - - 48 26 70 38 N 1004,8 6 0,0
17.10.2017 14:00:00 9,8 7,2 - - 50 27 80 43 N 1002,7 14 0,0
17.10.2017 13:00:00 9,5 7,7 - - 61 33 87 47 NNE 1001,0 12 0,0
17.10.2017 12:00:00 9,7 8,3 - - 65 35 87 47 NNE 998,4 8 0,0
17.10.2017 11:00:00 9,4 8,7 - - 65 35 87 47 NNE 996,2 2,9 0,2
17.10.2017 10:00:00 9,7 9,3 11,0 10,9 63 34 83 45 NNE 994,7 7 0,2
17.10.2017 09:00:00 9,9 9,8 - - 59 32 76 41 NNE 993,1 3,9 0,8
17.10.2017 08:00:00 11,2 11,1 - - 21 11 - - NE 992,4 1,4 1,6
17.10.2017 07:00:00 11,2 11,1 - - 13 7 - - ENE 992,2 2,1 2,6
17.10.2017 06:00:00 11,1 10,9 - - 21 11 - - E 992,3 5 2,2
17.10.2017 05:00:00 11,1 10,7 - - 18 10 - - E 992,8 2,9 1,4
17.10.2017 04:00:00 11,3 10,7 - - 16 9 - - ESE 993,8 3,5 0,8
17.10.2017 03:00:00 11,9 11,2 - - 21 11 - - E 994,7 7 0,0
17.10.2017 02:00:00 11,8 11,5 - - 29 16 59 32 E 995,5 7 0,0
17.10.2017 01:00:00 10,1 9,8 - - 35 19 85 46 E 996,3 7 1,0
17.10.2017 00:00:00 9,3 9,0 - - 54 29 93 50 E 997,8 3,6 2,6
16.10.2017 23:00:00 9,1 8,7 - - 54 29 98 53 E 999,9 3,9 0,4
16.10.2017 22:00:00 8,2 7,6 - - 55 30 122 66 E 1001,2 5 1,6
16.10.2017 21:00:00 8,7 7,7 - - 54 29 91 49 E 1003,8 6 1,6
16.10.2017 20:00:00 8,7 7,1 - - 42 23 72 39 E 1007,0 4,1 0,8
16.10.2017 19:00:00 9,5 7,1 - - 35 19 57 31 E 1008,7 9 0,4
16.10.2017 18:00:00 10,1 6,8 - - 34 18 54 29 E 1009,5 15 0,0
16.10.2017 17:00:00 10,2 8,0 - - 24 13 - - E 1010,7 40 0,2
16.10.2017 16:00:00 10,4 8,8 - - 22 12 - - E 1011,8 24 0,2
16.10.2017 15:00:00 10,9 8,5 - - 11 6 - - E 1012,8 28 0,0
16.10.2017 14:00:00 11,3 8,2 - - 8 4 - - SE 1013,9 30 0,0
16.10.2017 13:00:00 11,4 8,7 - - 13 7 - - S 1015,1 30 0,0
16.10.2017 12:00:00 11,1 7,9 - - 13 7 - - SSW 1015,5 30 0,0
16.10.2017 11:00:00 10,9 8,0 - - 11 6 - - SSW 1015,3 40 0,0
16.10.2017 10:00:00 10,7 7,6 11,0 10,9 5 3 - - SSW 1014,2 29 0,0
16.10.2017 09:00:00 10,3 7,8 - - 15 8 - - SSW 1014,3 21 0,0
16.10.2017 08:00:00 10,1 7,6 - - 13 7 - - SSW 1014,5 24 0,0
16.10.2017 07:00:00 9,4 7,4 - - 11 6 - - S 1014,1 40 0,0
16.10.2017 06:00:00 9,7 6,7 - - 5 3 - - S 1013,7 25 0,0
16.10.2017 05:00:00 9,5 6,4 - - 4 2 - - SW 1013,6 30 0,0
16.10.2017 04:00:00 9,9 6,8 - - 11 6 - - W 1013,4 35 0,2
16.10.2017 03:00:00 9,8 7,3 - - 13 7 - - W 1013,3 35 0,0
16.10.2017 02:00:00 8,9 7,0 - - 21 11 - - W 1013,2 3,1 0,0
16.10.2017 01:00:00 9,8 7,1 - - 16 9 - - W 1012,3 15 0,0
16.10.2017 00:00:00 9,7 6,6 - - 22 12 - - W 1011,3 40 0,0
15.10.2017 23:00:00 9,8 7,1 - - 26 14 - - W 1010,5 22 0,2
15.10.2017 22:00:00 10,0 7,0 - - 34 18 59 32 W 1009,0 11 0,0
15.10.2017 21:00:00 10,0 7,2 - - 37 20 72 39 W 1007,8 17 0,0
15.10.2017 20:00:00 9,5 7,4 - - 50 27 80 43 W 1005,9 5 0,0
15.10.2017 19:00:00 9,8 7,2 - - 67 36 91 49 W 1003,4 11 0,0
15.10.2017 18:00:00 10,3 8,7 - - 55 30 87 47 W 1000,9 9 0,0
15.10.2017 17:00:00 11,9 10,3 - - 68 37 94 51 WSW 998,3 10 0,0
15.10.2017 16:00:00 13,8 11,9 - - 54 29 68 37 S 997,3 12 0,0
15.10.2017 15:00:00 13,4 11,9 - - 42 23 59 32 S 998,1 11 0,0
15.10.2017 14:00:00 13,7 11,8 - - 48 26 61 33 S 998,5 13 0,0
15.10.2017 13:00:00 13,5 11,8 - - 39 21 52 28 S 999,3 12 0,0
15.10.2017 12:00:00 13,2 11,6 - - 44 24 54 29 S 999,7 12 0,0
15.10.2017 11:00:00 13,0 11,6 - - 37 20 52 28 SSW 1000,1 11 0,2
15.10.2017 10:00:00 12,6 11,7 11,0 11,0 39 21 55 30 S 1000,4 10 0,2
15.10.2017 09:00:00 12,6 11,8 - - 41 22 54 29 S 1001,2 9 0,4
15.10.2017 08:00:00 12,4 11,8 - - 37 20 48 26 S 1001,7 10 0,4
15.10.2017 07:00:00 12,2 11,7 - - 34 18 48 26 S 1002,8 8 0,4
15.10.2017 06:00:00 11,8 11,5 - - 28 15 - - SSE 1004,4 7 0,6
15.10.2017 05:00:00 11,0 10,3 - - 28 15 - - ESE 1006,0 11 0,4
15.10.2017 04:00:00 9,9 8,3 - - 28 15 - - ESE 1007,9 5 0,2
15.10.2017 03:00:00 9,8 6,4 - - 21 11 - - SE 1009,4 13 0,6
15.10.2017 02:00:00 9,7 5,7 - - 9 5 - - S 1010,5 21 0,0
15.10.2017 01:00:00 11,0 7,3 - - 31 17 - - S 1012,0 17 0,0
15.10.2017 00:00:00 11,1 7,8 - - 21 11 - - SSW 1012,4 12 0,0
14.10.2017 23:00:00 11,2 7,8 - - 24 13 - - SW 1012,4 13 0,0
14.10.2017 22:00:00 11,1 8,3 - - 34 18 - - SW 1012,4 12 0,0
14.10.2017 21:00:00 11,0 8,5 - - 34 18 59 32 SW 1012,5 12 0,0
14.10.2017 20:00:00 11,2 8,2 - - 41 22 57 31 SW 1012,1 13 0,0
14.10.2017 19:00:00 11,3 8,2 - - 37 20 63 34 WSW 1011,7 12 0,0
14.10.2017 18:00:00 11,2 8,4 - - 37 20 65 35 WSW 1011,2 10 0,0
14.10.2017 17:00:00 11,2 8,6 - - 41 22 67 36 SW 1011,0 10 0,0
14.10.2017 16:00:00 11,6 8,0 - - 50 27 70 38 SW 1010,4 13 0,0
14.10.2017 15:00:00 12,0 8,3 - - 50 27 63 34 SW 1009,8 12 0,0
14.10.2017 14:00:00 11,9 7,9 - - 50 27 78 42 SW 1009,5 12 0,0
14.10.2017 13:00:00 11,6 8,0 - - 46 25 61 33 SW 1009,1 14 0,0
14.10.2017 12:00:00 11,4 7,7 - - 46 25 65 35 SW 1008,5 11 0,0
14.10.2017 11:00:00 11,8 7,7 - - 52 28 67 36 SW 1008,2 10 0,0
14.10.2017 10:00:00 11,5 7,9 11,0 11,0 44 24 65 35 SSW 1007,7 11 0,0
14.10.2017 09:00:00 11,1 7,9 - - 42 23 61 33 SW 1007,1 11 0,0
14.10.2017 08:00:00 11,2 8,0 - - 39 21 61 33 SW 1006,8 12 0,0

tt = temperature
td = dewpoint
tt -20cm = temperature -20cm
tt -100cm = temperature -100cm
ff = wind speed
fx = gusts
dd = wind direction
ppp = reduced air pressure
vv = visibility
rr = precipitation

Next stations